date,time,SUV Intensity [MED/Hr],UV Index,Daily total [MED],Since Last [MED]
16/08/2023,00:00:09,-0.000,0.0,0.0,0.0
16/08/2023,00:01:09,-0.001,0.0,0.0,0.0
16/08/2023,00:02:10,0.000,0.0,0.0,0.0
16/08/2023,00:03:09,0.000,0.0,0.0,0.0
16/08/2023,00:04:09,0.000,0.0,0.0,0.0
16/08/2023,00:05:09,0.000,0.0,0.0,0.0
16/08/2023,00:06:10,0.000,0.0,0.0,0.0
16/08/2023,00:07:10,0.000,0.0,0.0,0.0
16/08/2023,00:08:09,0.001,0.0,0.0,0.0
16/08/2023,00:09:09,0.000,0.0,0.0,0.0
16/08/2023,00:10:09,0.001,0.0,0.0,0.0
16/08/2023,00:11:09,0.000,0.0,0.0,0.0
16/08/2023,00:12:10,-0.000,0.0,0.0,0.0
16/08/2023,00:13:09,0.000,0.0,0.0,0.0
16/08/2023,00:14:09,0.000,0.0,0.0,0.0
16/08/2023,00:15:10,0.000,0.0,0.0,0.0
16/08/2023,00:16:09,-0.000,0.0,0.0,0.0
16/08/2023,00:17:09,0.000,0.0,0.0,0.0
16/08/2023,00:18:09,0.001,0.0,0.0,0.0
16/08/2023,00:19:10,-0.000,0.0,0.0,0.0
16/08/2023,00:20:09,0.000,0.0,0.0,0.0
16/08/2023,00:21:09,0.000,0.0,0.0,0.0
16/08/2023,00:22:10,0.000,0.0,0.0,0.0
16/08/2023,00:23:09,-0.000,0.0,0.0,0.0
16/08/2023,00:24:10,0.000,0.0,0.0,0.0
16/08/2023,00:25:09,-0.000,0.0,0.0,0.0
16/08/2023,00:26:10,0.000,0.0,0.0,0.0
16/08/2023,00:27:09,0.000,0.0,0.0,0.0
16/08/2023,00:28:09,0.000,0.0,0.0,0.0
16/08/2023,00:29:09,0.000,0.0,0.0,0.0
16/08/2023,00:30:10,0.000,0.0,0.0,0.0
16/08/2023,00:31:09,0.000,0.0,0.0,0.0
16/08/2023,00:32:09,-0.000,0.0,0.0,0.0
16/08/2023,00:33:09,0.000,0.0,0.0,0.0
16/08/2023,00:34:10,0.001,0.0,0.0,0.0
16/08/2023,00:35:09,0.000,0.0,0.0,0.0
16/08/2023,00:36:09,0.001,0.0,0.0,0.0
16/08/2023,00:37:09,0.000,0.0,0.0,0.0
16/08/2023,00:38:08,0.000,0.0,0.0,0.0
16/08/2023,00:39:07,0.000,0.0,0.0,0.0
16/08/2023,00:40:09,0.000,0.0,0.0,0.0
16/08/2023,00:41:10,0.001,0.0,0.0,0.0
16/08/2023,00:42:10,0.000,0.0,0.0,0.0
16/08/2023,00:43:09,0.001,0.0,0.0,0.0
16/08/2023,00:44:09,0.000,0.0,0.0,0.0
16/08/2023,00:45:09,0.000,0.0,0.0,0.0
16/08/2023,00:46:10,0.001,0.0,0.0,0.0
16/08/2023,00:47:09,0.000,0.0,0.0,0.0
16/08/2023,00:48:09,0.000,0.0,0.0,0.0
16/08/2023,00:49:10,0.001,0.0,0.0,0.0
16/08/2023,00:50:09,0.001,0.0,0.0,0.0
16/08/2023,00:51:10,0.002,0.0,0.0,0.0
16/08/2023,00:52:09,-0.000,0.0,0.0,0.0
16/08/2023,00:53:09,0.000,0.0,0.0,0.0
16/08/2023,00:54:09,0.000,0.0,0.0,0.0
16/08/2023,00:55:10,0.001,0.0,0.0,0.0
16/08/2023,00:56:09,0.000,0.0,0.0,0.0
16/08/2023,00:57:09,-0.000,0.0,0.0,0.0
16/08/2023,00:58:07,0.000,0.0,0.0,0.0
16/08/2023,00:59:07,0.001,0.0,0.0,0.0
16/08/2023,01:00:09,-0.000,0.0,0.0,0.0
16/08/2023,01:01:10,0.001,0.0,0.0,0.0
16/08/2023,01:02:09,0.001,0.0,0.0,0.0
16/08/2023,01:03:09,0.001,0.0,0.0,0.0
16/08/2023,01:04:09,0.002,0.0,0.0,0.0
16/08/2023,01:05:10,-0.000,0.0,0.0,0.0
16/08/2023,01:06:09,0.000,0.0,0.0,0.0
16/08/2023,01:07:09,0.001,0.0,0.0,0.0
16/08/2023,01:08:10,0.001,0.0,0.0,0.0
16/08/2023,01:09:08,0.001,0.0,0.0,0.0
16/08/2023,01:10:07,0.001,0.0,0.0,0.0
16/08/2023,01:11:10,0.002,0.0,0.0,0.0
16/08/2023,01:12:09,0.001,0.0,0.0,0.0
16/08/2023,01:13:10,0.001,0.0,0.0,0.0
16/08/2023,01:14:09,0.001,0.0,0.0,0.0
16/08/2023,01:15:09,0.001,0.0,0.0,0.0
16/08/2023,01:16:09,0.000,0.0,0.0,0.0
16/08/2023,01:17:09,0.001,0.0,0.0,0.0
16/08/2023,01:18:10,0.001,0.0,0.0,0.0
16/08/2023,01:19:09,0.001,0.0,0.0,0.0
16/08/2023,01:20:10,0.001,0.0,0.0,0.0
16/08/2023,01:21:09,0.001,0.0,0.0,0.0
16/08/2023,01:22:09,0.002,0.0,0.0,0.0
16/08/2023,01:23:09,0.001,0.0,0.0,0.0
16/08/2023,01:24:09,0.001,0.0,0.0,0.0
16/08/2023,01:25:09,0.001,0.0,0.0,0.0
16/08/2023,01:26:10,0.001,0.0,0.0,0.0
16/08/2023,01:27:09,0.001,0.0,0.0,0.0
16/08/2023,01:28:09,0.001,0.0,0.0,0.0
16/08/2023,01:29:10,0.001,0.0,0.0,0.0
16/08/2023,01:30:09,0.001,0.0,0.0,0.0
16/08/2023,01:31:10,0.002,0.0,0.0,0.0
16/08/2023,01:32:09,0.001,0.0,0.0,0.0
16/08/2023,01:33:10,0.001,0.0,0.0,0.0
16/08/2023,01:34:09,-0.000,0.0,0.0,0.0
16/08/2023,01:35:10,0.001,0.0,0.0,0.0
16/08/2023,01:36:09,0.001,0.0,0.0,0.0
16/08/2023,01:37:09,0.000,0.0,0.0,0.0
16/08/2023,01:38:09,0.001,0.0,0.0,0.0
16/08/2023,01:39:10,0.001,0.0,0.0,0.0
16/08/2023,01:40:09,0.000,0.0,0.0,0.0
16/08/2023,01:41:09,-0.000,0.0,0.0,0.0
16/08/2023,01:42:10,0.001,0.0,0.0,0.0
16/08/2023,01:43:09,0.002,0.0,0.0,0.0
16/08/2023,01:44:10,0.001,0.0,0.0,0.0
16/08/2023,01:45:09,0.000,0.0,0.0,0.0
16/08/2023,01:46:09,0.001,0.0,0.0,0.0
16/08/2023,01:47:10,0.001,0.0,0.0,0.0
16/08/2023,01:48:09,0.001,0.0,0.0,0.0
16/08/2023,01:49:10,0.001,0.0,0.0,0.0
16/08/2023,01:50:09,0.000,0.0,0.0,0.0
16/08/2023,01:51:10,0.001,0.0,0.0,0.0
16/08/2023,01:52:09,0.001,0.0,0.0,0.0
16/08/2023,01:53:10,-0.000,0.0,0.0,0.0
16/08/2023,01:54:09,-0.000,0.0,0.0,0.0
16/08/2023,01:55:09,0.001,0.0,0.0,0.0
16/08/2023,01:56:10,0.001,0.0,0.0,0.0
16/08/2023,01:57:10,0.002,0.0,0.0,0.0
16/08/2023,01:58:09,0.001,0.0,0.0,0.0
16/08/2023,01:59:09,0.001,0.0,0.0,0.0
16/08/2023,02:00:10,-0.000,0.0,0.0,0.0
16/08/2023,02:01:09,0.001,0.0,0.0,0.0
16/08/2023,02:02:10,0.000,0.0,0.0,0.0
16/08/2023,02:03:09,0.001,0.0,0.0,0.0
16/08/2023,02:04:09,0.002,0.0,0.0,0.0
16/08/2023,02:05:10,0.001,0.0,0.0,0.0
16/08/2023,02:06:09,-0.000,0.0,0.0,0.0
16/08/2023,02:07:10,0.001,0.0,0.0,0.0
16/08/2023,02:08:10,0.001,0.0,0.0,0.0
16/08/2023,02:09:09,0.001,0.0,0.0,0.0
16/08/2023,02:10:08,0.000,0.0,0.0,0.0
16/08/2023,02:11:08,0.001,0.0,0.0,0.0
16/08/2023,02:12:10,0.001,0.0,0.0,0.0
16/08/2023,02:13:09,0.001,0.0,0.0,0.0
16/08/2023,02:14:10,0.001,0.0,0.0,0.0
16/08/2023,02:15:10,0.000,0.0,0.0,0.0
16/08/2023,02:16:09,0.001,0.0,0.0,0.0
16/08/2023,02:17:10,0.001,0.0,0.0,0.0
16/08/2023,02:18:09,0.001,0.0,0.0,0.0
16/08/2023,02:19:09,0.001,0.0,0.0,0.0
16/08/2023,02:20:10,0.002,0.0,0.0,0.0
16/08/2023,02:21:09,0.000,0.0,0.0,0.0
16/08/2023,02:22:09,0.001,0.0,0.0,0.0
16/08/2023,02:23:09,0.002,0.0,0.0,0.0
16/08/2023,02:24:10,0.001,0.0,0.0,0.0
16/08/2023,02:25:09,0.001,0.0,0.0,0.0
16/08/2023,02:26:10,0.001,0.0,0.0,0.0
16/08/2023,02:27:09,0.001,0.0,0.0,0.0
16/08/2023,02:28:09,0.002,0.0,0.0,0.0
16/08/2023,02:29:07,0.002,0.0,0.0,0.0
16/08/2023,02:30:08,0.000,0.0,0.0,0.0
16/08/2023,02:31:10,0.001,0.0,0.0,0.0
16/08/2023,02:32:09,0.001,0.0,0.0,0.0
16/08/2023,02:33:09,0.001,0.0,0.0,0.0
16/08/2023,02:34:08,0.001,0.0,0.0,0.0
16/08/2023,02:35:07,0.001,0.0,0.0,0.0
16/08/2023,02:36:09,0.001,0.0,0.0,0.0
16/08/2023,02:37:08,0.001,0.0,0.0,0.0
16/08/2023,02:38:08,0.001,0.0,0.0,0.0
16/08/2023,02:39:10,0.002,0.0,0.0,0.0
16/08/2023,02:40:09,0.001,0.0,0.0,0.0
16/08/2023,02:41:10,0.001,0.0,0.0,0.0
16/08/2023,02:42:09,0.001,0.0,0.0,0.0
16/08/2023,02:43:10,0.001,0.0,0.0,0.0
16/08/2023,02:44:09,0.000,0.0,0.0,0.0
16/08/2023,02:45:10,0.001,0.0,0.0,0.0
16/08/2023,02:46:10,0.001,0.0,0.0,0.0
16/08/2023,02:47:09,0.002,0.0,0.0,0.0
16/08/2023,02:48:09,0.000,0.0,0.0,0.0
16/08/2023,02:49:10,0.001,0.0,0.0,0.0
16/08/2023,02:50:10,0.002,0.0,0.0,0.0
16/08/2023,02:51:09,0.001,0.0,0.0,0.0
16/08/2023,02:52:09,0.002,0.0,0.0,0.0
16/08/2023,02:53:10,0.001,0.0,0.0,0.0
16/08/2023,02:54:10,0.002,0.0,0.0,0.0
16/08/2023,02:55:09,0.001,0.0,0.0,0.0
16/08/2023,02:56:11,0.001,0.0,0.0,0.0
16/08/2023,02:57:10,0.001,0.0,0.0,0.0
16/08/2023,02:58:10,0.001,0.0,0.0,0.0
16/08/2023,02:59:09,0.002,0.0,0.0,0.0
16/08/2023,03:00:09,0.001,0.0,0.0,0.0
16/08/2023,03:01:10,0.001,0.0,0.0,0.0
16/08/2023,03:02:10,0.001,0.0,0.0,0.0
16/08/2023,03:03:09,0.000,0.0,0.0,0.0
16/08/2023,03:04:10,0.000,0.0,0.0,0.0
16/08/2023,03:05:09,0.001,0.0,0.0,0.0
16/08/2023,03:06:09,0.001,0.0,0.0,0.0
16/08/2023,03:07:11,0.002,0.0,0.0,0.0
16/08/2023,03:08:11,0.001,0.0,0.0,0.0
16/08/2023,03:09:10,0.002,0.0,0.0,0.0
16/08/2023,03:10:10,0.001,0.0,0.0,0.0
16/08/2023,03:11:07,0.000,0.0,0.0,0.0
16/08/2023,03:12:08,0.001,0.0,0.0,0.0
16/08/2023,03:13:10,0.001,0.0,0.0,0.0
16/08/2023,03:14:09,0.002,0.0,0.0,0.0
16/08/2023,03:15:09,0.002,0.0,0.0,0.0
16/08/2023,03:16:10,0.002,0.0,0.0,0.0
16/08/2023,03:17:09,0.002,0.0,0.0,0.0
16/08/2023,03:18:09,0.001,0.0,0.0,0.0
16/08/2023,03:19:10,0.001,0.0,0.0,0.0
16/08/2023,03:20:09,0.002,0.0,0.0,0.0
16/08/2023,03:21:10,0.001,0.0,0.0,0.0
16/08/2023,03:22:09,0.001,0.0,0.0,0.0
16/08/2023,03:23:10,0.001,0.0,0.0,0.0
16/08/2023,03:24:09,0.001,0.0,0.0,0.0
16/08/2023,03:25:09,0.001,0.0,0.0,0.0
16/08/2023,03:26:09,0.001,0.0,0.0,0.0
16/08/2023,03:27:10,0.000,0.0,0.0,0.0
16/08/2023,03:28:09,0.001,0.0,0.0,0.0
16/08/2023,03:29:10,0.001,0.0,0.0,0.0
16/08/2023,03:30:10,0.002,0.0,0.0,0.0
16/08/2023,03:31:09,0.001,0.0,0.0,0.0
16/08/2023,03:32:10,0.001,0.0,0.0,0.0
16/08/2023,03:33:09,0.000,0.0,0.0,0.0
16/08/2023,03:34:10,0.001,0.0,0.0,0.0
16/08/2023,03:35:09,0.001,0.0,0.0,0.0
16/08/2023,03:36:10,0.001,0.0,0.0,0.0
16/08/2023,03:37:11,0.001,0.0,0.0,0.0
16/08/2023,03:38:10,0.001,0.0,0.0,0.0
16/08/2023,03:39:10,0.001,0.0,0.0,0.0
16/08/2023,03:40:10,0.002,0.0,0.0,0.0
16/08/2023,03:41:09,0.001,0.0,0.0,0.0
16/08/2023,03:42:10,0.000,0.0,0.0,0.0
16/08/2023,03:43:10,0.001,0.0,0.0,0.0
16/08/2023,03:44:09,0.002,0.0,0.0,0.0
16/08/2023,03:45:09,0.002,0.0,0.0,0.0
16/08/2023,03:46:10,0.001,0.0,0.0,0.0
16/08/2023,03:47:10,0.002,0.0,0.0,0.0
16/08/2023,03:48:09,0.001,0.0,0.0,0.0
16/08/2023,03:49:09,0.001,0.0,0.0,0.0
16/08/2023,03:50:10,0.001,0.0,0.0,0.0
16/08/2023,03:51:10,0.002,0.0,0.0,0.0
16/08/2023,03:52:10,0.002,0.0,0.0,0.0
16/08/2023,03:53:09,0.001,0.0,0.0,0.0
16/08/2023,03:54:09,0.001,0.0,0.0,0.0
16/08/2023,03:55:10,0.001,0.0,0.0,0.0
16/08/2023,03:56:09,0.001,0.0,0.0,0.0
16/08/2023,03:57:10,0.001,0.0,0.0,0.0
16/08/2023,03:58:09,0.002,0.0,0.0,0.0
16/08/2023,03:59:10,0.001,0.0,0.0,0.0
16/08/2023,04:00:10,0.001,0.0,0.0,0.0
16/08/2023,04:01:09,0.001,0.0,0.0,0.0
16/08/2023,04:02:10,0.000,0.0,0.0,0.0
16/08/2023,04:03:09,0.001,0.0,0.0,0.0
16/08/2023,04:04:09,0.001,0.0,0.0,0.0
16/08/2023,04:05:10,0.002,0.0,0.0,0.0
16/08/2023,04:06:10,0.001,0.0,0.0,0.0
16/08/2023,04:07:10,0.001,0.0,0.0,0.0
16/08/2023,04:08:09,0.002,0.0,0.0,0.0
16/08/2023,04:09:09,0.001,0.0,0.0,0.0
16/08/2023,04:10:10,0.002,0.0,0.0,0.0
16/08/2023,04:11:10,0.001,0.0,0.0,0.0
16/08/2023,04:12:09,0.002,0.0,0.0,0.0
16/08/2023,04:13:10,0.001,0.0,0.0,0.0
16/08/2023,04:14:09,0.000,0.0,0.0,0.0
16/08/2023,04:15:10,0.000,0.0,0.0,0.0
16/08/2023,04:16:10,0.000,0.0,0.0,0.0
16/08/2023,04:17:10,0.002,0.0,0.0,0.0
16/08/2023,04:18:10,0.001,0.0,0.0,0.0
16/08/2023,04:19:10,0.001,0.0,0.0,0.0
16/08/2023,04:20:09,0.001,0.0,0.0,0.0
16/08/2023,04:21:10,0.002,0.0,0.0,0.0
16/08/2023,04:22:10,0.001,0.0,0.0,0.0
16/08/2023,04:23:09,0.001,0.0,0.0,0.0
16/08/2023,04:24:10,0.002,0.0,0.0,0.0
16/08/2023,04:25:10,0.001,0.0,0.0,0.0
16/08/2023,04:26:09,0.002,0.0,0.0,0.0
16/08/2023,04:27:10,0.001,0.0,0.0,0.0
16/08/2023,04:28:10,0.000,0.0,0.0,0.0
16/08/2023,04:29:09,0.002,0.0,0.0,0.0
16/08/2023,04:30:09,0.002,0.0,0.0,0.0
16/08/2023,04:31:10,0.001,0.0,0.0,0.0
16/08/2023,04:32:10,0.001,0.0,0.0,0.0
16/08/2023,04:33:10,0.002,0.0,0.0,0.0
16/08/2023,04:34:09,0.002,0.0,0.0,0.0
16/08/2023,04:35:10,0.001,0.0,0.0,0.0
16/08/2023,04:36:10,0.002,0.0,0.0,0.0
16/08/2023,04:37:09,0.001,0.0,0.0,0.0
16/08/2023,04:38:10,0.002,0.0,0.0,0.0
16/08/2023,04:39:10,0.002,0.0,0.0,0.0
16/08/2023,04:40:09,0.003,0.0,0.0,0.0
16/08/2023,04:41:09,0.003,0.0,0.0,0.0
16/08/2023,04:42:10,0.002,0.0,0.0,0.0
16/08/2023,04:43:09,0.002,0.0,0.0,0.0
16/08/2023,04:44:10,0.003,0.0,0.0,0.0
16/08/2023,04:45:10,0.003,0.0,0.0,0.0
16/08/2023,04:46:11,0.003,0.0,0.0,0.0
16/08/2023,04:47:11,0.003,0.0,0.0,0.0
16/08/2023,04:48:10,0.002,0.0,0.0,0.0
16/08/2023,04:49:08,0.002,0.0,0.0,0.0
16/08/2023,04:50:08,0.002,0.0,0.0,0.0
16/08/2023,04:51:10,0.004,0.0,0.0,0.0
16/08/2023,04:52:08,0.004,0.0,0.0,0.0
16/08/2023,04:53:08,0.004,0.0,0.0,0.0
16/08/2023,04:54:10,0.003,0.0,0.0,0.0
16/08/2023,04:55:10,0.004,0.0,0.0,0.0
16/08/2023,04:56:10,0.004,0.0,0.0,0.0
16/08/2023,04:57:10,0.004,0.0,0.0,0.0
16/08/2023,04:58:10,0.005,0.0,0.0,0.0
16/08/2023,04:59:10,0.005,0.0,0.0,0.0
16/08/2023,05:00:10,0.005,0.0,0.0,0.0
16/08/2023,05:01:09,0.005,0.0,0.0,0.0
16/08/2023,05:02:10,0.007,0.0,0.0,0.0
16/08/2023,05:03:07,0.006,0.0,0.0,0.0
16/08/2023,05:04:08,0.006,0.0,0.0,0.0
16/08/2023,05:05:10,0.007,0.0,0.0,0.0
16/08/2023,05:06:10,0.006,0.0,0.0,0.0
16/08/2023,05:07:10,0.008,0.0,0.001,0.001
16/08/2023,05:08:08,0.008,0.0,0.001,0.0
16/08/2023,05:09:07,0.008,0.0,0.001,0.0
16/08/2023,05:10:10,0.009,0.0,0.001,0.0
16/08/2023,05:11:10,0.009,0.0,0.001,0.0
16/08/2023,05:12:09,0.009,0.0,0.001,0.0
16/08/2023,05:13:10,0.009,0.0,0.001,0.0
16/08/2023,05:14:10,0.009,0.0,0.002,0.001
16/08/2023,05:15:08,0.010,0.0,0.002,0.0
16/08/2023,05:16:10,0.010,0.0,0.002,0.0
16/08/2023,05:17:10,0.011,0.0,0.002,0.0
16/08/2023,05:18:10,0.011,0.0,0.002,0.0
16/08/2023,05:19:10,0.012,0.0,0.003,0.001
16/08/2023,05:20:10,0.012,0.0,0.003,0.0
16/08/2023,05:21:07,0.014,0.0,0.003,0.0
16/08/2023,05:22:08,0.014,0.0,0.003,0.0
16/08/2023,05:23:10,0.014,0.0,0.003,0.0
16/08/2023,05:24:10,0.016,0.0,0.004,0.001
16/08/2023,05:25:09,0.014,0.0,0.004,0.0
16/08/2023,05:26:08,0.016,0.0,0.004,0.0
16/08/2023,05:27:08,0.017,0.0,0.004,0.0
16/08/2023,05:28:10,0.017,0.0,0.005,0.001
16/08/2023,05:29:10,0.018,0.0,0.005,0.0
16/08/2023,05:30:10,0.019,0.0,0.005,0.0
16/08/2023,05:31:10,0.019,0.0,0.006,0.001
16/08/2023,05:32:10,0.020,0.0,0.006,0.0
16/08/2023,05:33:10,0.020,0.0,0.006,0.0
16/08/2023,05:34:09,0.021,0.0,0.007,0.001
16/08/2023,05:35:10,0.023,0.0,0.007,0.0
16/08/2023,05:36:10,0.023,0.0,0.007,0.0
16/08/2023,05:37:09,0.024,0.0,0.008,0.001
16/08/2023,05:38:10,0.024,0.0,0.008,0.0
16/08/2023,05:39:10,0.025,0.0,0.009,0.001
16/08/2023,05:40:10,0.026,0.0,0.009,0.0
16/08/2023,05:41:10,0.027,0.0,0.009,0.0
16/08/2023,05:42:10,0.029,0.0,0.01,0.001
16/08/2023,05:43:10,0.028,0.0,0.01,0.0
16/08/2023,05:44:10,0.030,0.0,0.011,0.001
16/08/2023,05:45:10,0.030,0.0,0.011,0.0
16/08/2023,05:46:10,0.030,0.0,0.012,0.001
16/08/2023,05:47:10,0.031,0.0,0.012,0.0
16/08/2023,05:48:10,0.033,0.0,0.013,0.001
16/08/2023,05:49:10,0.035,0.0,0.013,0.0
16/08/2023,05:50:10,0.036,0.0,0.014,0.001
16/08/2023,05:51:10,0.036,0.0,0.015,0.001
16/08/2023,05:52:10,0.037,0.0,0.015,0.0
16/08/2023,05:53:10,0.018,0.0,0.016,0.001
16/08/2023,05:54:10,0.019,0.0,0.016,0.0
16/08/2023,05:55:10,0.039,0.0,0.017,0.001
16/08/2023,05:56:10,0.040,0.0,0.017,0.0
16/08/2023,05:57:10,0.041,0.0,0.018,0.001
16/08/2023,05:58:10,0.043,0.0,0.019,0.001
16/08/2023,05:59:10,0.044,0.0,0.019,0.0
16/08/2023,06:00:10,0.045,0.0,0.02,0.001
16/08/2023,06:01:10,0.046,0.0,0.021,0.001
16/08/2023,06:02:10,0.048,0.0,0.022,0.001
16/08/2023,06:03:10,0.049,0.0,0.022,0.0
16/08/2023,06:04:09,0.050,0.0,0.023,0.001
16/08/2023,06:05:10,0.051,0.0,0.024,0.001
16/08/2023,06:06:10,0.051,0.0,0.025,0.001
16/08/2023,06:07:10,0.054,0.0,0.026,0.001
16/08/2023,06:08:10,0.055,0.0,0.027,0.001
16/08/2023,06:09:10,0.057,0.0,0.028,0.001
16/08/2023,06:10:10,0.057,0.0,0.029,0.001
16/08/2023,06:11:10,0.059,0.0,0.03,0.001
16/08/2023,06:12:10,0.060,0.0,0.031,0.001
16/08/2023,06:13:10,0.062,0.0,0.032,0.001
16/08/2023,06:14:10,0.064,0.0,0.033,0.001
16/08/2023,06:15:12,0.067,0.0,0.034,0.001
16/08/2023,06:16:10,0.067,0.0,0.035,0.001
16/08/2023,06:17:10,0.068,0.0,0.036,0.001
16/08/2023,06:18:10,0.071,0.0,0.037,0.001
16/08/2023,06:19:10,0.071,0.0,0.038,0.001
16/08/2023,06:20:10,0.073,0.0,0.039,0.001
16/08/2023,06:21:10,0.075,0.0,0.041,0.002
16/08/2023,06:22:10,0.077,0.0,0.042,0.001
16/08/2023,06:23:10,0.079,0.0,0.043,0.001
16/08/2023,06:24:10,0.082,0.0,0.045,0.002
16/08/2023,06:25:10,0.084,0.0,0.046,0.001
16/08/2023,06:26:10,0.087,0.0,0.047,0.001
16/08/2023,06:27:10,0.088,0.0,0.049,0.002
16/08/2023,06:28:10,0.090,0.0,0.05,0.001
16/08/2023,06:29:10,0.092,0.0,0.052,0.002
16/08/2023,06:30:10,0.094,0.0,0.053,0.001
16/08/2023,06:31:10,0.096,0.0,0.055,0.002
16/08/2023,06:32:08,0.098,0.0,0.057,0.002
16/08/2023,06:33:08,0.100,0.0,0.058,0.001
16/08/2023,06:34:10,0.102,0.0,0.06,0.002
16/08/2023,06:35:10,0.105,0.0,0.062,0.002
16/08/2023,06:36:10,0.107,0.0,0.063,0.001
16/08/2023,06:37:10,0.109,0.0,0.065,0.002
16/08/2023,06:38:10,0.111,0.0,0.067,0.002
16/08/2023,06:39:10,0.113,0.0,0.069,0.002
16/08/2023,06:40:10,0.116,0.0,0.071,0.002
16/08/2023,06:41:10,0.118,0.0,0.073,0.002
16/08/2023,06:42:10,0.120,0.0,0.075,0.002
16/08/2023,06:43:10,0.123,0.0,0.077,0.002
16/08/2023,06:44:10,0.126,0.0,0.079,0.002
16/08/2023,06:45:10,0.129,0.0,0.081,0.002
16/08/2023,06:46:08,0.131,0.0,0.083,0.002
16/08/2023,06:47:08,0.133,0.0,0.085,0.002
16/08/2023,06:48:10,0.137,0.0,0.088,0.003
16/08/2023,06:49:10,0.139,0.0,0.09,0.002
16/08/2023,06:50:10,0.142,0.0,0.092,0.002
16/08/2023,06:51:10,0.145,0.0,0.095,0.003
16/08/2023,06:52:10,0.148,0.0,0.097,0.002
16/08/2023,06:53:10,0.151,0.0,0.1,0.003
16/08/2023,06:54:10,0.153,0.0,0.102,0.002
16/08/2023,06:55:10,0.157,0.0,0.105,0.003
16/08/2023,06:56:10,0.159,0.0,0.107,0.002
16/08/2023,06:57:10,0.163,0.0,0.11,0.003
16/08/2023,06:58:10,0.166,0.0,0.113,0.003
16/08/2023,06:59:10,0.169,0.0,0.116,0.003
16/08/2023,07:00:10,0.173,0.0,0.118,0.002
16/08/2023,07:01:10,0.175,0.0,0.121,0.003
16/08/2023,07:02:10,0.180,0.0,0.124,0.003
16/08/2023,07:03:08,0.182,0.0,0.127,0.003
16/08/2023,07:04:08,0.186,0.0,0.13,0.003
16/08/2023,07:05:10,0.190,0.0,0.134,0.004
16/08/2023,07:06:10,0.193,0.0,0.137,0.003
16/08/2023,07:07:10,0.197,0.0,0.14,0.003
16/08/2023,07:08:10,0.199,0.0,0.143,0.003
16/08/2023,07:09:10,0.203,0.0,0.147,0.004
16/08/2023,07:10:10,0.208,0.0,0.15,0.003
16/08/2023,07:11:10,0.210,0.0,0.153,0.003
16/08/2023,07:12:10,0.214,0.0,0.157,0.004
16/08/2023,07:13:10,0.218,1.0,0.161,0.004
16/08/2023,07:14:10,0.221,1.0,0.164,0.003
16/08/2023,07:15:10,0.226,1.0,0.168,0.004
16/08/2023,07:16:10,0.230,1.0,0.172,0.004
16/08/2023,07:17:10,0.233,1.0,0.176,0.004
16/08/2023,07:18:11,0.238,1.0,0.18,0.004
16/08/2023,07:19:10,0.240,1.0,0.184,0.004
16/08/2023,07:20:11,0.245,1.0,0.188,0.004
16/08/2023,07:21:11,0.249,1.0,0.192,0.004
16/08/2023,07:22:10,0.253,1.0,0.196,0.004
16/08/2023,07:23:12,0.258,1.0,0.2,0.004
16/08/2023,07:24:10,0.261,1.0,0.205,0.005
16/08/2023,07:25:10,0.266,1.0,0.209,0.004
16/08/2023,07:26:10,0.271,1.0,0.213,0.004
16/08/2023,07:27:10,0.274,1.0,0.218,0.005
16/08/2023,07:28:10,0.278,1.0,0.223,0.005
16/08/2023,07:29:10,0.284,1.0,0.227,0.004
16/08/2023,07:30:10,0.288,1.0,0.232,0.005
16/08/2023,07:31:10,0.292,1.0,0.237,0.005
16/08/2023,07:32:10,0.296,1.0,0.242,0.005
16/08/2023,07:33:10,0.300,1.0,0.247,0.005
16/08/2023,07:34:08,0.305,1.0,0.252,0.005
16/08/2023,07:35:08,0.309,1.0,0.257,0.005
16/08/2023,07:36:10,0.314,1.0,0.262,0.005
16/08/2023,07:37:08,0.317,1.0,0.267,0.005
16/08/2023,07:38:08,0.322,1.0,0.272,0.005
16/08/2023,07:39:11,0.326,1.0,0.278,0.006
16/08/2023,07:40:11,0.331,1.0,0.283,0.005
16/08/2023,07:41:08,0.336,1.0,0.289,0.006
16/08/2023,07:42:08,0.341,1.0,0.295,0.006
16/08/2023,07:43:11,0.347,1.0,0.3,0.005
16/08/2023,07:44:08,0.351,1.0,0.306,0.006
16/08/2023,07:45:08,0.357,1.0,0.312,0.006
16/08/2023,07:46:10,0.362,1.0,0.318,0.006
16/08/2023,07:47:10,0.367,1.0,0.324,0.006
16/08/2023,07:48:11,0.373,1.0,0.33,0.006
16/08/2023,07:49:10,0.379,1.0,0.337,0.007
16/08/2023,07:50:10,0.383,1.0,0.343,0.006
16/08/2023,07:51:08,0.386,1.0,0.349,0.006
16/08/2023,07:52:08,0.393,1.0,0.356,0.007
16/08/2023,07:53:10,0.399,1.0,0.362,0.006
16/08/2023,07:54:13,0.405,1.0,0.369,0.007
16/08/2023,07:55:11,0.409,1.0,0.376,0.007
16/08/2023,07:56:10,0.414,1.0,0.383,0.007
16/08/2023,07:57:10,0.420,1.0,0.39,0.007
16/08/2023,07:58:10,0.425,1.0,0.397,0.007
16/08/2023,07:59:10,0.432,1.0,0.404,0.007
16/08/2023,08:00:10,0.438,1.0,0.411,0.007
16/08/2023,08:01:10,0.444,1.0,0.418,0.007
16/08/2023,08:02:10,0.450,1.0,0.426,0.008
16/08/2023,08:03:10,0.455,1.0,0.433,0.007
16/08/2023,08:04:10,0.461,1.0,0.441,0.008
16/08/2023,08:05:10,0.468,1.0,0.449,0.008
16/08/2023,08:06:10,0.472,1.0,0.457,0.008
16/08/2023,08:07:10,0.479,1.0,0.465,0.008
16/08/2023,08:08:10,0.485,1.0,0.473,0.008
16/08/2023,08:09:10,0.490,1.0,0.481,0.008
16/08/2023,08:10:10,0.498,1.0,0.489,0.008
16/08/2023,08:11:10,0.502,1.0,0.497,0.008
16/08/2023,08:12:11,0.508,1.0,0.506,0.009
16/08/2023,08:13:10,0.513,1.0,0.514,0.008
16/08/2023,08:14:10,0.518,1.0,0.523,0.009
16/08/2023,08:15:10,0.526,1.0,0.531,0.008
16/08/2023,08:16:10,0.531,1.0,0.54,0.009
16/08/2023,08:17:10,0.539,1.0,0.549,0.009
16/08/2023,08:18:10,0.547,1.0,0.558,0.009
16/08/2023,08:19:10,0.552,1.0,0.567,0.009
16/08/2023,08:20:10,0.559,1.0,0.577,0.01
16/08/2023,08:21:10,0.567,1.0,0.586,0.009
16/08/2023,08:22:10,0.574,1.0,0.596,0.01
16/08/2023,08:23:10,0.582,1.0,0.605,0.009
16/08/2023,08:24:10,0.588,1.0,0.615,0.01
16/08/2023,08:25:10,0.595,1.0,0.625,0.01
16/08/2023,08:26:10,0.602,1.0,0.635,0.01
16/08/2023,08:27:10,0.608,1.0,0.645,0.01
16/08/2023,08:28:10,0.614,1.0,0.655,0.01
16/08/2023,08:29:09,0.621,1.0,0.665,0.01
16/08/2023,08:30:08,0.626,1.0,0.675,0.01
16/08/2023,08:31:10,0.632,1.0,0.686,0.011
16/08/2023,08:32:10,0.639,1.0,0.697,0.011
16/08/2023,08:33:10,0.649,1.0,0.708,0.011
16/08/2023,08:34:10,0.654,2.0,0.718,0.01
16/08/2023,08:35:10,0.659,2.0,0.729,0.011
16/08/2023,08:36:11,0.666,2.0,0.74,0.011
16/08/2023,08:37:10,0.673,2.0,0.752,0.012
16/08/2023,08:38:10,0.682,2.0,0.763,0.011
16/08/2023,08:39:10,0.688,2.0,0.774,0.011
16/08/2023,08:40:11,0.696,2.0,0.786,0.012
16/08/2023,08:41:10,0.704,2.0,0.797,0.011
16/08/2023,08:42:10,0.712,2.0,0.809,0.012
16/08/2023,08:43:11,0.717,2.0,0.821,0.012
16/08/2023,08:44:10,0.724,2.0,0.833,0.012
16/08/2023,08:45:11,0.726,2.0,0.845,0.012
16/08/2023,08:46:10,0.732,2.0,0.857,0.012
16/08/2023,08:47:10,0.742,2.0,0.87,0.013
16/08/2023,08:48:10,0.749,2.0,0.882,0.012
16/08/2023,08:49:10,0.755,2.0,0.895,0.013
16/08/2023,08:50:10,0.766,2.0,0.907,0.012
16/08/2023,08:51:11,0.774,2.0,0.92,0.013
16/08/2023,08:52:10,0.785,2.0,0.933,0.013
16/08/2023,08:53:10,0.748,2.0,0.946,0.013
16/08/2023,08:54:10,0.704,2.0,0.958,0.012
16/08/2023,08:55:10,0.714,2.0,0.969,0.011
16/08/2023,08:56:10,0.828,2.0,0.982,0.013
16/08/2023,08:57:10,0.835,2.0,0.996,0.014
16/08/2023,08:58:10,0.818,2.0,1.009,0.013
16/08/2023,08:59:10,0.856,2.0,1.023,0.014
16/08/2023,09:00:10,0.843,2.0,1.038,0.015
16/08/2023,09:01:10,0.855,2.0,1.052,0.014
16/08/2023,09:02:11,0.860,2.0,1.066,0.014
16/08/2023,09:03:10,0.868,2.0,1.08,0.014
16/08/2023,09:04:11,0.874,2.0,1.095,0.015
16/08/2023,09:05:11,0.880,2.0,1.11,0.015
16/08/2023,09:06:10,0.867,2.0,1.123,0.013
16/08/2023,09:07:10,0.893,2.0,1.138,0.015
16/08/2023,09:08:11,0.909,2.0,1.153,0.015
16/08/2023,09:09:10,0.905,2.0,1.168,0.015
16/08/2023,09:10:10,0.916,2.0,1.184,0.016
16/08/2023,09:11:10,0.926,2.0,1.199,0.015
16/08/2023,09:12:10,0.911,2.0,1.214,0.015
16/08/2023,09:13:10,0.938,2.0,1.23,0.016
16/08/2023,09:14:11,0.946,2.0,1.246,0.016
16/08/2023,09:15:08,0.953,2.0,1.261,0.015
16/08/2023,09:16:08,0.970,2.0,1.277,0.016
16/08/2023,09:17:11,0.957,2.0,1.293,0.016
16/08/2023,09:18:10,0.933,2.0,1.309,0.016
16/08/2023,09:19:10,0.879,2.0,1.325,0.016
16/08/2023,09:20:10,0.986,2.0,1.34,0.015
16/08/2023,09:21:10,0.963,2.0,1.355,0.015
16/08/2023,09:22:10,0.995,2.0,1.371,0.016
16/08/2023,09:23:11,1.012,2.0,1.388,0.017
16/08/2023,09:24:10,1.014,2.0,1.405,0.017
16/08/2023,09:25:10,1.024,2.0,1.422,0.017
16/08/2023,09:26:10,1.033,2.0,1.439,0.017
16/08/2023,09:27:11,1.036,2.0,1.456,0.017
16/08/2023,09:28:10,1.043,2.0,1.473,0.017
16/08/2023,09:29:10,1.048,2.0,1.491,0.018
16/08/2023,09:30:11,1.056,2.0,1.508,0.017
16/08/2023,09:31:10,1.063,2.0,1.526,0.018
16/08/2023,09:32:10,1.073,2.0,1.544,0.018
16/08/2023,09:33:11,1.080,2.0,1.562,0.018
16/08/2023,09:34:10,1.086,2.0,1.58,0.018
16/08/2023,09:35:10,1.095,3.0,1.598,0.018
16/08/2023,09:36:11,1.098,3.0,1.616,0.018
16/08/2023,09:37:10,1.104,3.0,1.635,0.019
16/08/2023,09:38:11,1.116,3.0,1.653,0.018
16/08/2023,09:39:10,1.125,3.0,1.672,0.019
16/08/2023,09:40:10,1.127,3.0,1.691,0.019
16/08/2023,09:41:10,1.133,3.0,1.71,0.019
16/08/2023,09:42:10,1.146,3.0,1.728,0.018
16/08/2023,09:43:11,1.152,3.0,1.748,0.02
16/08/2023,09:44:08,1.156,3.0,1.766,0.018
16/08/2023,09:45:09,1.160,3.0,1.786,0.02
16/08/2023,09:46:11,1.172,3.0,1.806,0.02
16/08/2023,09:47:10,1.182,3.0,1.825,0.019
16/08/2023,09:48:10,1.194,3.0,1.845,0.02
16/08/2023,09:49:10,1.207,3.0,1.865,0.02
16/08/2023,09:50:10,1.210,3.0,1.885,0.02
16/08/2023,09:51:10,1.215,3.0,1.905,0.02
16/08/2023,09:52:10,1.221,3.0,1.926,0.021
16/08/2023,09:53:10,1.229,3.0,1.946,0.02
16/08/2023,09:54:11,1.239,3.0,1.967,0.021
16/08/2023,09:55:10,1.242,3.0,1.987,0.02
16/08/2023,09:56:10,1.249,3.0,2.008,0.021
16/08/2023,09:57:10,1.258,3.0,2.029,0.021
16/08/2023,09:58:10,1.263,3.0,2.05,0.021
16/08/2023,09:59:10,1.270,3.0,2.071,0.021
16/08/2023,10:00:11,1.277,3.0,2.092,0.021